This is the latest recevied weather packets stored in our database for station/object W0VI. If no packets are shown the sender has not sent any weather packets the latest 10 day(s).
| Time | Temp. | Humidity | Pressure | Rain* | Wind** | Luminosity | Snow |
|---|---|---|---|---|---|---|---|
| 1787761076 | 22.22° C | 73% | 1015.5 hPa | 0 mm | - | 213 W/m² | - |
| 1787760776 | 22.22° C | 74% | 1015.5 hPa | 0 mm | - | 330 W/m² | - |
| 1787760470 | 22.22° C | 73% | 1015.5 hPa | 0 mm | - | 271 W/m² | - |
| 1787760169 | 22.22° C | 75% | 1015.3 hPa | 0 mm | - | 220 W/m² | - |
| 1787759866 | 22.78° C | 73% | 1015.2 hPa | 0 mm | - | 88 W/m² | - |
| 1787759562 | 22.22° C | 74% | 1015.2 hPa | 0 mm | - | 321 W/m² | - |
| 1787759258 | 22.78° C | 73% | 1015.4 hPa | 0 mm | - | 180 W/m² | - |
| 1787758958 | 22.78° C | 73% | 1015.1 hPa | 0 mm | - | 278 W/m² | - |
| 1787758652 | 22.78° C | 74% | 1015.1 hPa | 0 mm | - | 217 W/m² | - |
| 1787758352 | 22.22° C | 75% | 1015.1 hPa | 0 mm | - | 595 W/m² | - |
| 1787758051 | 21.67° C | 76% | 1015.1 hPa | 0 mm | - | 162 W/m² | - |
| 1787757748 | 22.22° C | 74% | 1015 hPa | 0 mm | - | 149 W/m² | - |
| 1787757447 | 22.22° C | 75% | 1015.2 hPa | 0 mm | - | 279 W/m² | - |
| 1787757143 | 22.22° C | 75% | 1015.1 hPa | 0 mm | - | 232 W/m² | - |
| 1787756841 | 21.67° C | 76% | 1015 hPa | 0 mm | - | 562 W/m² | - |
| 1787756537 | 21.67° C | 78% | 1015 hPa | 0 mm | - | 209 W/m² | - |
| 1787756236 | 21.67° C | 78% | 1015 hPa | 0 mm | - | 187 W/m² | - |
| 1787755931 | 21.67° C | 79% | 1014.9 hPa | 0 mm | - | 452 W/m² | - |
| 1787755630 | 21.67° C | 78% | 1014.9 hPa | 0 mm | - | 419 W/m² | - |
| 1787755326 | 21.11° C | 80% | 1014.9 hPa | 0 mm | - | 370 W/m² | - |
| 1787755024 | 21.11° C | 80% | 1014.9 hPa | 0 mm | - | 352 W/m² | - |
| 1787754725 | 20.56° C | 81% | 1014.7 hPa | 0 mm | - | 404 W/m² | - |
| 1787754422 | 21.11° C | 81% | 1014.8 hPa | 0 mm | - | 220 W/m² | - |
| 1787754118 | 20.56° C | 82% | 1015 hPa | 0 mm | - | 354 W/m² | - |
| 1787753812 | 20.56° C | 83% | 1014.7 hPa | 0 mm | - | 196 W/m² | - |
* Rain latest hour (hover to see other rain measurements)
** Current wind speed in m/s (hover to see current wind gust speed)